Location: Pcim
(49.7500°N, 19.9670°E)
Time: 20:20:24
(UTC+02:00)

MOZHAYETS 4 - Pass Details

Date: 25 April 2024
Orbit: 652 x 670 km, 98.3° (Epoch: 20 May)

Event Time Altitude Azimuth Distance (km) Brightness Sun altitude
Rises 02:57:37 0° 138° (SE) 3,010 11.0 -19.9°
Reaches altitude 10° 02:59:59 10° 130° (SE) 2,101 10.2 -19.7°
Maximum altitude 03:04:07 34° 66° (ENE) 1,104 9.4 -19.3°
Drops below altitude 10° 03:08:16 10° 1° (N) 2,113 11.0 -18.8°
Sets 03:10:39 0° 353° (N) 3,030 11.8 -18.6°
